User: anonymous   Login
Location: Unspecified
(0.0000°N, 0.0000°E)
Time: 22:04:40
(UTC+00:00)
Language:

Tiros 3 - Orbit

View from above orbital plane
View from above orbital plane
View from above satellite
View from above satellite

Ground track
Ground track

The orbit data is extracted from the following two-line orbital elements,

1 00162U 61017A   17289.67049985 -.00000086  00000-0  22093-4 0  9994
2 00162  47.9008 343.8586 0045411 298.0249  61.6054 14.43983413959459
Epoch (UTC): 16 October 2017 16:05:31
Eccentricity: 0.0045411
inclination: 47.9008°
perigee height: 713 km
apogee height: 778 km
right ascension of ascending node: 343.8586°
argument of perigee: 298.0249°
revolutions per day: 14.43983413
mean anomaly at epoch: 61.6054°
orbit number at epoch: 95945

The dashed part of the orbit path shows where the satellite is in the earth's shadow,  

DLR